"SCET";"TARGET";"ELECTRON_DENSITY";"ERROR_FLAG";"ELECTRON_DENSITY_ERROR";"FREQ_FCE";"MEASURED_VALUE";"MEASURED_ITEM";"FREQ_PLASMA";"FREQ_UPPER_HYBRID";"FREQ_R_EQUALS_ZERO";"FREQ_L_EQUALS_ZERO";"ORBIT_NUMBER";"SATURN_RADIUS";"SATURN_IAU_LONGITUDE";"SATURN_SLS4_S_LONGITUDE";"SATURN_SLS4_N_LONGITUDE";"SATURN_SLS5_S_LONGITUDE";"SATURN_SLS5_N_LONGITUDE";"SATURN_LOCAL_TIME";"SATURN_KRONOGRAPHIC_LATITUDE";"SATURN_MAGNETIC_LATITUDE";"SATURN_L";"SATURN_L_OFFSET";"SATURN_SOLAR_EQUATORIAL_X";"SATURN_SOLAR_EQUATORIAL_Y";"SATURN_SOLAR_EQUATORIAL_Z";"SATURN_ALTITUDE";"ENCELADUS_ENCOUNTER_NUMBER";"ENCELADUS_RADIUS";"ENCELADUS_COROTATIONAL_X";"ENCELADUS_COROTATIONAL_Y";"ENCELADUS_COROTATIONAL_Z";"ENCELADUS_TRUE_ANOMALY";"ENCELADUS_PERIAPSIS_TIME";"JUPITER_RADIUS";"JUPITER_SYSTEMIII_LONGITUDE";"JUPITER_MAGNETIC_LATITUDE";"JUPITER_MAGNETIC_LOCAL_TIME";"JUPITER_L";"IO_PHASE";"EARTH_RADIUS";"EARTH_MAGNETIC_LATITUDE";"EARTH_LOCAL_TIME";"EARTH_L"
"[UTC]";"[0=Saturn, 1=Enceladus, 2=Jupiter, 3=Earth]";"[cm-3]";"[0=automated, 1=manual]";"[normalized density error]";"[Hz]";"[Hz]";"[0=upper hybrid frequency, 1=plasma frequency cutoff]";"[Hz]";"[Hz]";"[Hz]";"[Hz}";"[0, A, B, C, 3, 4, ... , 292, 293]";"[Rs where 1Rs=60268km]";"[degrees]";"[degrees]";"[degrees]";"[degrees]";"[degrees]";"[hours]";"[degrees]";"[degrees where offset=2293km north]";"[Rs where 1Rs=60268km]";"[Rs where 1Rs=60268km and offset=2293km north]";"[Rs where 1Rs=60268km]";"[Rs where 1Rs=60268km]";"[Rs where 1Rs=60268km]";"[km where ellipsoid a,b=60268km and c=54364km]";"[E0, E1, E2, ... , E21, E22]";"[Renc where 1Renc=252.1km]";"[Renc where 1Renc=252.1km]";"[Renc where 1Renc=252.1km]";"[Renc where 1Renc=252.1km]";"[degrees]";"[UTC]";"[Rj where 1Rj=71492km]";"[degrees]";"[degrees using JRM09 model]";"[hours using JRM09 model]";"[Rj where 1Rj=71492km]";"[degrees]";"[Re where 1Re=6378.1366km]";"[degrees]";"[hours]";"[Re where 1Re=6378.1366km]"
2008-09-25T01:22:13.576Z;0;1.1020e+01;0;     0.154;  8946.812;  31120.648; 0;  29806.867;  31120.648;  34614.086;  25667.275; 86;   4.023; 221.903;  12.722;  68.717; 303.763;  65.485;  22.425;   8.485;   7.948;   4.113;   4.014;  -3.646;   1.594;   0.593;;;;;;;;;;;;;;;;;;
2008-09-25T01:22:29.576Z;0;1.0970e+01;0;     0.154;  8946.812;  31053.221; 0;  29736.461;  31053.221;  34544.461;  25597.650; 86;   4.023; 222.036;  12.853;  68.851; 303.894;  65.619;  22.427;   8.427;   7.890;   4.111;   4.013;  -3.647;   1.593;   0.589;;;;;;;;;;;;;;;;;;
2008-09-25T01:22:37.576Z;0;1.1040e+01;0;     0.162;  8946.812;  31149.090; 0;  29836.561;  31149.090;  34643.453;  25696.641; 86;   4.023; 222.103;  12.919;  68.919; 303.959;  65.685;  22.427;   8.397;   7.861;   4.110;   4.013;  -3.647;   1.593;   0.587;;;;;;;;;;;;;;;;;;
2008-09-25T01:22:45.576Z;0;1.1220e+01;0;     0.154;  8946.812;  31378.623; 0;  30076.113;  31378.623;  34880.379;  25933.564; 86;   4.022; 222.170;  12.985;  68.986; 304.024;  65.752;  22.428;   8.368;   7.831;   4.109;   4.013;  -3.647;   1.592;   0.585;;;;;;;;;;;;;;;;;;
2008-09-25T01:22:53.576Z;0;1.0970e+01;0;     0.145;  8946.812;  31064.801; 0;  29748.553;  31064.801;  34556.422;  25609.609; 86;   4.022; 222.237;  13.050;  69.053; 304.090;  65.819;  22.428;   8.339;   7.802;   4.108;   4.013;  -3.647;   1.592;   0.583;;;;;;;;;;;;;;;;;;
2008-09-25T01:23:01.576Z;0;1.1160e+01;0;     0.143;  8943.872;  31300.621; 0;  29995.600;  31300.621;  34799.059;  25855.184; 86;   4.022; 222.304;  13.116;  69.121; 304.155;  65.885;  22.429;   8.310;   7.773;   4.108;   4.012;  -3.648;   1.591;   0.581;;;;;;;;;;;;;;;;;;
2008-09-25T01:23:09.576Z;0;1.1050e+01;0;     0.138;  8943.872;  31164.623; 0;  29853.658;  31164.623;  34658.672;  25714.801; 86;   4.022; 222.371;  13.182;  69.188; 304.220;  65.952;  22.429;   8.281;   7.743;   4.107;   4.012;  -3.648;   1.591;   0.579;;;;;;;;;;;;;;;;;;
2008-09-25T01:23:17.575Z;0;1.1200e+01;0;     0.149;  8943.872;  31358.859; 0;  30056.367;  31358.859;  34859.160;  25915.289; 86;   4.021; 222.437;  13.247;  69.255; 304.286;  66.019;  22.430;   8.251;   7.714;   4.106;   4.012;  -3.648;   1.590;   0.577;;;;;;;;;;;;;;;;;;
2008-09-25T01:23:25.575Z;0;1.1330e+01;0;     0.143;  8943.872;  31526.664; 0;  30231.402;  31526.664;  35032.301;  26088.430; 86;   4.021; 222.504;  13.313;  69.322; 304.351;  66.085;  22.430;   8.222;   7.685;   4.105;   4.012;  -3.648;   1.590;   0.575;;;;;;;;;;;;;;;;;;
2008-09-25T01:23:33.575Z;0;1.1870e+01;0;     0.177;  8943.872;  32203.607; 0;  30936.701;  32203.607;  35730.180;  26786.307; 86;   4.021; 222.571;  13.379;  69.390; 304.416;  66.152;  22.431;   8.193;   7.656;   4.104;   4.011;  -3.649;   1.589;   0.573;;;;;;;;;;;;;;;;;;
2008-09-25T01:23:41.575Z;0;1.2060e+01;0;     0.171;  8943.872;  32442.598; 0;  31185.402;  32442.598;  35976.340;  27032.469; 86;   4.020; 222.638;  13.445;  69.457; 304.482;  66.219;  22.431;   8.164;   7.626;   4.103;   4.011;  -3.649;   1.589;   0.571;;;;;;;;;;;;;;;;;;
2008-09-25T01:23:49.575Z;0;1.1420e+01;0;     0.141;  8943.872;  31632.736; 0;  30342.004;  31632.736;  35141.715;  26197.844; 86;   4.020; 222.705;  13.510;  69.524; 304.547;  66.285;  22.432;   8.134;   7.597;   4.102;   4.011;  -3.649;   1.588;   0.569;;;;;;;;;;;;;;;;;;
2008-09-25T01:23:57.575Z;0;1.1800e+01;0;     0.146;  8943.872;  32119.305; 0;  30848.936;  32119.305;  35643.320;  26699.447; 86;   4.020; 222.772;  13.576;  69.592; 304.612;  66.352;  22.433;   8.105;   7.568;   4.102;   4.011;  -3.650;   1.588;   0.567;;;;;;;;;;;;;;;;;;
2008-09-25T01:24:05.575Z;0;1.2050e+01;0;     0.141;  8940.904;  32428.518; 0;  31171.605;  32428.518;  35960.988;  27020.086; 86;   4.020; 222.838;  13.642;  69.659; 304.677;  66.418;  22.433;   8.076;   7.538;   4.101;   4.010;  -3.650;   1.587;   0.565;;;;;;;;;;;;;;;;;;
2008-09-25T01:24:13.575Z;0;1.2020e+01;0;     0.143;  8940.904;  32390.307; 0;  31131.852;  32390.307;  35921.637;  26980.734; 86;   4.019; 222.905;  13.707;  69.726; 304.742;  66.485;  22.434;   8.047;   7.509;   4.100;   4.010;  -3.650;   1.587;   0.562;;;;;;;;;;;;;;;;;;
2008-09-25T01:24:21.575Z;0;1.2100e+01;0;     0.155;  8940.904;  32491.412; 0;  31237.031;  32491.412;  36025.754;  27084.850; 86;   4.019; 222.972;  13.773;  69.794; 304.808;  66.551;  22.434;   8.017;   7.480;   4.099;   4.010;  -3.650;   1.586;   0.560;;;;;;;;;;;;;;;;;;
2008-09-25T01:24:29.575Z;0;1.2110e+01;0;     0.138;  8940.904;  32505.508; 0;  31251.693;  32505.508;  36040.266;  27099.363; 86;   4.019; 223.039;  13.839;  69.861; 304.873;  66.618;  22.435;   7.988;   7.450;   4.098;   4.010;  -3.651;   1.586;   0.558;;;;;;;;;;;;;;;;;;
2008-09-25T01:24:37.575Z;0;1.2050e+01;0;     0.136;  8940.904;  32426.025; 0;  31169.014;  32426.025;  35958.422;  27017.520; 86;   4.019; 223.106;  13.904;  69.928; 304.938;  66.684;  22.435;   7.959;   7.421;   4.097;   4.010;  -3.651;   1.585;   0.556;;;;;;;;;;;;;;;;;;
2008-09-25T01:24:45.575Z;0;1.2240e+01;0;     0.145;  8940.904;  32661.020; 0;  31413.412;  32661.020;  36200.363;  27259.461; 86;   4.018; 223.173;  13.970;  69.996; 305.003;  66.751;  22.436;   7.930;   7.392;   4.096;   4.009;  -3.651;   1.585;   0.554;;;;;;;;;;;;;;;;;;
2008-09-25T01:24:53.575Z;0;1.2300e+01;0;     0.145;  8940.904;  32734.188; 0;  31489.479;  32734.188;  36275.676;  27334.771; 86;   4.018; 223.239;  14.036;  70.063; 305.068;  66.817;  22.436;   7.900;   7.362;   4.096;   4.009;  -3.651;   1.584;   0.552;;;;;;;;;;;;;;;;;;
2008-09-25T01:25:09.575Z;0;1.2300e+01;0;     0.140;  8938.216;  32738.553; 0;  31494.779;  32738.553;  36279.391;  27341.174; 86;   4.018; 223.373;  14.167;  70.197; 305.198;  66.950;  22.438;   7.842;   7.304;   4.094;   4.009;  -3.652;   1.583;   0.548;;;;;;;;;;;;;;;;;;
2008-09-25T01:25:17.575Z;0;1.3010e+01;0;     0.149;  8938.216;  33596.438; 0;  32385.629;  33596.438;  37161.645;  28223.428; 86;   4.017; 223.440;  14.233;  70.265; 305.263;  67.016;  22.438;   7.812;   7.274;   4.093;   4.008;  -3.652;   1.583;   0.546;;;;;;;;;;;;;;;;;;
2008-09-25T01:25:25.575Z;0;1.3000e+01;0;     0.173;  8938.216;  33592.406; 0;  32381.445;  33592.406;  37157.500;  28219.285; 86;   4.017; 223.507;  14.299;  70.332; 305.328;  67.083;  22.439;   7.783;   7.245;   4.092;   4.008;  -3.652;   1.582;   0.544;;;;;;;;;;;;;;;;;;
2008-09-25T01:25:33.575Z;0;1.3020e+01;0;     0.155;  8938.216;  33609.219; 0;  32398.887;  33609.219;  37174.777;  28236.562; 86;   4.017; 223.574;  14.364;  70.399; 305.393;  67.149;  22.439;   7.754;   7.216;   4.091;   4.008;  -3.653;   1.581;   0.542;;;;;;;;;;;;;;;;;;
2008-09-25T01:25:41.574Z;0;1.2790e+01;0;     0.147;  8938.216;  33336.590; 0;  32115.986;  33336.590;  36894.551;  27956.336; 86;   4.017; 223.640;  14.430;  70.467; 305.458;  67.215;  22.440;   7.725;   7.186;   4.091;   4.008;  -3.653;   1.581;   0.540;;;;;;;;;;;;;;;;;;
2008-09-25T01:25:49.574Z;0;1.2850e+01;0;     0.151;  8938.216;  33409.211; 0;  32191.359;  33409.211;  36969.211;  28030.994; 86;   4.016; 223.707;  14.496;  70.534; 305.523;  67.282;  22.440;   7.695;   7.157;   4.090;   4.007;  -3.653;   1.580;   0.538;;;;;;;;;;;;;;;;;;
2008-09-25T01:25:57.574Z;0;1.3010e+01;0;     0.173;  8938.216;  33603.473; 0;  32392.926;  33603.473;  37168.871;  28230.656; 86;   4.016; 223.774;  14.561;  70.601; 305.588;  67.348;  22.441;   7.666;   7.128;   4.089;   4.007;  -3.653;   1.580;   0.536;;;;;;;;;;;;;;;;;;
2008-09-25T01:26:05.574Z;0;1.3260e+01;0;     0.172;  8935.780;  33904.184; 0;  32705.436;  33904.184;  37477.094;  28541.314; 86;   4.016; 223.841;  14.627;  70.669; 305.653;  67.414;  22.441;   7.637;   7.098;   4.088;   4.007;  -3.654;   1.579;   0.533;;;;;;;;;;;;;;;;;;
2008-09-25T01:26:13.574Z;0;1.3050e+01;0;     0.162;  8935.780;  33648.711; 0;  32440.523;  33648.711;  37214.641;  28278.859; 86;   4.016; 223.908;  14.693;  70.736; 305.718;  67.481;  22.442;   7.607;   7.069;   4.087;   4.007;  -3.654;   1.579;   0.531;;;;;;;;;;;;;;;;;;
2008-09-25T01:26:21.574Z;0;1.3130e+01;0;     0.155;  8935.780;  33744.219; 0;  32539.578;  33744.219;  37312.770;  28376.990; 86;   4.015; 223.974;  14.759;  70.803; 305.783;  67.547;  22.442;   7.578;   7.039;   4.086;   4.006;  -3.654;   1.578;   0.529;;;;;;;;;;;;;;;;;;
2008-09-25T01:26:29.574Z;0;1.3250e+01;0;     0.181;  8935.780;  33886.941; 0;  32687.561;  33886.941;  37459.383;  28523.604; 86;   4.015; 224.041;  14.824;  70.870; 305.848;  67.613;  22.443;   7.549;   7.010;   4.086;   4.006;  -3.654;   1.578;   0.527;;;;;;;;;;;;;;;;;;
2008-09-25T01:26:37.574Z;0;1.3150e+01;0;     0.153;  8935.780;  33765.316; 0;  32561.457;  33765.316;  37334.445;  28398.666; 86;   4.015; 224.108;  14.890;  70.938; 305.913;  67.679;  22.444;   7.519;   6.981;   4.085;   4.006;  -3.655;   1.577;   0.525;;;;;;;;;;;;;;;;;;
2008-09-25T01:26:45.574Z;0;1.3340e+01;0;     0.156;  8935.780;  33992.652; 0;  32797.137;  33992.652;  37567.953;  28632.174; 86;   4.015; 224.175;  14.956;  71.005; 305.978;  67.745;  22.444;   7.490;   6.951;   4.084;   4.006;  -3.655;   1.577;   0.523;;;;;;;;;;;;;;;;;;
2008-09-25T01:26:53.574Z;0;1.3500e+01;0;     0.174;  8935.780;  34181.387; 0;  32992.711;  34181.387;  37761.750;  28825.969; 86;   4.014; 224.242;  15.021;  71.072; 306.043;  67.812;  22.445;   7.461;   6.922;   4.083;   4.006;  -3.655;   1.576;   0.521;;;;;;;;;;;;;;;;;;
2008-09-25T01:27:01.574Z;0;1.3250e+01;0;     0.172;  8933.428;  33889.918; 0;  32691.289;  33889.918;  37461.742;  28528.314; 86;   4.014; 224.309;  15.087;  71.140; 306.107;  67.878;  22.445;   7.431;   6.892;   4.082;   4.005;  -3.655;   1.576;   0.519;;;;;;;;;;;;;;;;;;
2008-09-25T01:27:09.574Z;0;1.3590e+01;0;     0.180;  8933.428;  34287.375; 0;  33103.141;  34287.375;  37869.852;  28936.422; 86;   4.014; 224.375;  15.153;  71.207; 306.172;  67.944;  22.446;   7.402;   6.863;   4.082;   4.005;  -3.656;   1.575;   0.517;;;;;;;;;;;;;;;;;;
2008-09-25T01:27:25.574Z;0;1.4470e+01;0;     0.183;  8933.428;  35307.828; 0;  34158.988;  35307.828;  38916.504;  29983.078; 86;   4.013; 224.509;  15.284;  71.342; 306.302;  68.076;  22.447;   7.343;   6.804;   4.080;   4.005;  -3.656;   1.574;   0.513;;;;;;;;;;;;;;;;;;
2008-09-25T01:27:33.574Z;0;1.3760e+01;0;     0.190;  8933.428;  34491.000; 0;  33314.004;  34491.000;  38078.832;  29145.404; 86;   4.013; 224.576;  15.350;  71.409; 306.367;  68.142;  22.447;   7.314;   6.775;   4.079;   4.004;  -3.656;   1.574;   0.511;;;;;;;;;;;;;;;;;;
2008-09-25T01:27:41.574Z;0;1.4350e+01;0;     0.199;  8933.428;  35175.207; 0;  34021.891;  35175.207;  38780.566;  29847.141; 86;   4.013; 224.643;  15.416;  71.476; 306.431;  68.208;  22.448;   7.285;   6.745;   4.079;   4.004;  -3.657;   1.573;   0.509;;;;;;;;;;;;;;;;;;
2008-09-25T01:27:49.574Z;0;1.3870e+01;0;     0.228;  8933.428;  34613.988; 0;  33441.324;  34613.988;  38205.023;  29271.596; 86;   4.013; 224.710;  15.481;  71.544; 306.496;  68.274;  22.449;   7.255;   6.716;   4.078;   4.004;  -3.657;   1.573;   0.507;;;;;;;;;;;;;;;;;;
2008-09-25T01:28:53.573Z;0;1.5070e+01;0;     0.138;  8931.412;  35985.641; 0;  34859.664;  35985.641;  39610.246;  30678.834; 86;   4.011; 225.244;  16.007;  72.082; 307.013;  68.802;  22.453;   7.020;   6.480;   4.072;   4.002;  -3.659;   1.569;   0.490;;;;;;;;;;;;;;;;;;
2008-09-25T01:29:17.573Z;0;1.5950e+01;0;     0.181;  8929.872;  36963.660; 0;  35868.781;  36963.660;  40610.547;  31680.676; 86;   4.010; 225.445;  16.204;  72.284; 307.207;  69.000;  22.455;   6.932;   6.392;   4.069;   4.002;  -3.659;   1.567;   0.484;;;;;;;;;;;;;;;;;;
2008-09-25T01:29:25.573Z;0;1.7290e+01;0;     0.208;  8929.872;  38397.582; 0;  37344.770;  38397.582;  42075.672;  33145.797; 86;   4.010; 225.512;  16.270;  72.351; 307.271;  69.066;  22.455;   6.903;   6.363;   4.069;   4.001;  -3.660;   1.566;   0.482;;;;;;;;;;;;;;;;;;
2008-09-25T01:29:41.573Z;0;1.7030e+01;0;     0.177;  8929.872;  38121.266; 0;  37060.602;  38121.266;  41793.531;  32863.656; 86;   4.009; 225.645;  16.401;  72.486; 307.400;  69.197;  22.456;   6.844;   6.304;   4.067;   4.001;  -3.660;   1.565;   0.478;;;;;;;;;;;;;;;;;;
2008-09-25T01:29:49.573Z;0;1.6980e+01;0;     0.151;  8929.872;  38061.781; 0;  36999.414;  38061.781;  41732.781;  32802.910; 86;   4.009; 225.712;  16.467;  72.553; 307.465;  69.263;  22.457;   6.815;   6.274;   4.066;   4.001;  -3.660;   1.565;   0.476;;;;;;;;;;;;;;;;;;
2008-09-25T01:29:57.573Z;0;1.7260e+01;0;     0.161;  8929.872;  38366.445; 0;  37312.754;  38366.445;  42043.883;  33114.008; 86;   4.009; 225.779;  16.533;  72.620; 307.529;  69.329;  22.457;   6.785;   6.245;   4.066;   4.000;  -3.661;   1.564;   0.473;;;;;;;;;;;;;;;;;;
2008-09-25T01:30:05.573Z;0;1.6850e+01;0;     0.150;  8928.641;  37925.965; 0;  36859.980;  37925.965;  41593.668;  32665.025; 86;   4.009; 225.846;  16.598;  72.688; 307.594;  69.395;  22.458;   6.756;   6.215;   4.065;   4.000;  -3.661;   1.564;   0.471;;;;;;;;;;;;;;;;;;
2008-09-25T01:30:13.573Z;0;1.6900e+01;0;     0.142;  8928.641;  37977.047; 0;  36912.539;  37977.047;  41645.844;  32717.203; 86;   4.008; 225.913;  16.664;  72.755; 307.660;  69.463;  22.458;   6.726;   6.186;   4.064;   4.000;  -3.661;   1.563;   0.469;;;;;;;;;;;;;;;;;;
2008-09-25T01:30:21.572Z;0;1.7030e+01;0;     0.144;  8928.641;  38123.211; 0;  37062.902;  38123.211;  41795.121;  32866.480; 86;   4.008; 225.979;  16.730;  72.822; 307.726;  69.530;  22.459;   6.697;   6.156;   4.063;   4.000;  -3.661;   1.563;   0.467;;;;;;;;;;;;;;;;;;
2008-09-25T01:30:29.572Z;0;1.7130e+01;0;     0.154;  8928.641;  38221.574; 0;  37164.070;  38221.574;  41895.566;  32966.926; 86;   4.008; 226.046;  16.795;  72.890; 307.792;  69.597;  22.459;   6.668;   6.127;   4.063;   4.000;  -3.662;   1.562;   0.465;;;;;;;;;;;;;;;;;;
2008-09-25T01:30:37.572Z;0;1.7410e+01;0;     0.159;  8928.641;  38519.453; 0;  37470.355;  38519.453;  42199.688;  33271.047; 86;   4.008; 226.113;  16.861;  72.957; 307.858;  69.664;  22.460;   6.638;   6.097;   4.062;   3.999;  -3.662;   1.562;   0.463;;;;;;;;;;;;;;;;;;
2008-09-25T01:30:45.572Z;0;1.7650e+01;0;     0.132;  8928.641;  38767.977; 0;  37725.793;  38767.977;  42453.340;  33524.699; 86;   4.007; 226.180;  16.927;  73.024; 307.924;  69.731;  22.461;   6.609;   6.068;   4.061;   3.999;  -3.662;   1.561;   0.461;;;;;;;;;;;;;;;;;;
2008-09-25T01:30:53.572Z;0;1.7670e+01;0;     0.145;  8928.641;  38789.238; 0;  37747.641;  38789.238;  42475.035;  33546.395; 86;   4.007; 226.247;  16.992;  73.092; 307.989;  69.798;  22.461;   6.579;   6.038;   4.061;   3.999;  -3.662;   1.561;   0.459;;;;;;;;;;;;;;;;;;
2008-09-25T01:31:01.572Z;0;1.7660e+01;0;     0.137;  8927.465;  38776.816; 0;  37735.156;  38776.816;  42461.980;  33534.516; 86;   4.007; 226.314;  17.058;  73.159; 308.055;  69.866;  22.462;   6.550;   6.009;   4.060;   3.999;  -3.662;   1.560;   0.457;;;;;;;;;;;;;;;;;;
2008-09-25T01:31:09.572Z;0;1.7810e+01;0;     0.132;  8927.465;  38932.980; 0;  37895.609;  38932.980;  42621.328;  33693.867; 86;   4.007; 226.380;  17.124;  73.226; 308.121;  69.933;  22.462;   6.520;   5.979;   4.059;   3.999;  -3.663;   1.560;   0.455;;;;;;;;;;;;;;;;;;
2008-09-25T01:31:17.572Z;0;1.8200e+01;0;     0.144;  8927.465;  39335.055; 0;  38308.574;  39335.055;  43031.488;  34104.023; 86;   4.007; 226.447;  17.190;  73.294; 308.187;  70.000;  22.463;   6.491;   5.950;   4.058;   3.998;  -3.663;   1.559;   0.453;;;;;;;;;;;;;;;;;;
2008-09-25T01:31:25.572Z;0;1.8420e+01;0;     0.126;  8927.465;  39559.105; 0;  38538.594;  39559.105;  43259.969;  34332.508; 86;   4.006; 226.514;  17.255;  73.361; 308.253;  70.067;  22.463;   6.461;   5.920;   4.058;   3.998;  -3.663;   1.559;   0.451;;;;;;;;;;;;;;;;;;
2008-09-25T01:31:33.572Z;0;1.8530e+01;0;     0.138;  8927.465;  39672.762; 0;  38655.250;  39672.762;  43375.855;  34448.391; 86;   4.006; 226.581;  17.321;  73.428; 308.319;  70.135;  22.464;   6.432;   5.891;   4.057;   3.998;  -3.663;   1.558;   0.449;;;;;;;;;;;;;;;;;;
2008-09-25T01:31:41.572Z;0;1.8050e+01;0;     0.124;  8927.465;  39184.758; 0;  38154.234;  39184.758;  42878.191;  33950.727; 86;   4.006; 226.648;  17.387;  73.495; 308.385;  70.202;  22.464;   6.403;   5.861;   4.056;   3.998;  -3.664;   1.558;   0.447;;;;;;;;;;;;;;;;;;
2008-09-25T01:31:49.572Z;0;1.8330e+01;0;     0.134;  8927.465;  39469.523; 0;  38446.633;  39469.523;  43168.621;  34241.160; 86;   4.006; 226.715;  17.452;  73.563; 308.451;  70.269;  22.465;   6.373;   5.832;   4.056;   3.997;  -3.664;   1.557;   0.444;;;;;;;;;;;;;;;;;;
2008-09-25T01:31:57.572Z;0;1.8200e+01;0;     0.117;  8927.465;  39341.141; 0;  38314.824;  39341.141;  43037.695;  34110.230; 86;   4.005; 226.781;  17.518;  73.630; 308.517;  70.336;  22.466;   6.344;   5.802;   4.055;   3.997;  -3.664;   1.556;   0.442;;;;;;;;;;;;;;;;;;
2008-09-25T01:32:05.572Z;0;1.8170e+01;0;     0.109;  8926.568;  39300.457; 0;  38273.258;  39300.457;  42995.910;  34069.340; 86;   4.005; 226.848;  17.584;  73.697; 308.583;  70.404;  22.466;   6.314;   5.773;   4.054;   3.997;  -3.664;   1.556;   0.440;;;;;;;;;;;;;;;;;;
2008-09-25T01:32:13.572Z;0;1.8460e+01;0;     0.109;  8926.568;  39605.949; 0;  38586.883;  39605.949;  43307.441;  34380.871; 86;   4.005; 226.915;  17.649;  73.765; 308.649;  70.471;  22.467;   6.285;   5.743;   4.053;   3.997;  -3.664;   1.555;   0.438;;;;;;;;;;;;;;;;;;
2008-09-25T01:32:21.572Z;0;1.8780e+01;0;     0.132;  8926.568;  39931.262; 0;  38920.715;  39931.262;  43639.078;  34712.512; 86;   4.005; 226.982;  17.715;  73.832; 308.715;  70.539;  22.467;   6.255;   5.714;   4.053;   3.997;  -3.665;   1.555;   0.436;;;;;;;;;;;;;;;;;;
2008-09-25T01:32:29.572Z;0;1.8090e+01;0;     0.101;  8926.568;  39222.746; 0;  38193.457;  39222.746;  42916.648;  33990.078; 86;   4.004; 227.049;  17.781;  73.899; 308.781;  70.606;  22.468;   6.226;   5.684;   4.052;   3.996;  -3.665;   1.554;   0.434;;;;;;;;;;;;;;;;;;
2008-09-25T01:32:37.572Z;0;1.9400e+01;0;     0.135;  8926.568;  40549.387; 0;  39554.637;  40549.387;  44268.938;  35342.371; 86;   4.004; 227.115;  17.847;  73.967; 308.847;  70.673;  22.468;   6.196;   5.655;   4.051;   3.996;  -3.665;   1.554;   0.432;;;;;;;;;;;;;;;;;;
2008-09-25T01:32:45.571Z;0;1.8610e+01;0;     0.121;  8926.568;  39758.977; 0;  38743.938;  39758.977;  43463.457;  34536.891; 86;   4.004; 227.182;  17.912;  74.034; 308.913;  70.741;  22.469;   6.167;   5.625;   4.051;   3.996;  -3.665;   1.553;   0.430;;;;;;;;;;;;;;;;;;
2008-09-25T01:32:53.571Z;0;1.9490e+01;0;     0.119;  8926.568;  40632.652; 0;  39639.988;  40632.652;  44353.754;  35427.188; 86;   4.004; 227.249;  17.978;  74.101; 308.979;  70.808;  22.469;   6.137;   5.595;   4.050;   3.996;  -3.666;   1.553;   0.428;;;;;;;;;;;;;;;;;;
2008-09-25T01:33:01.571Z;0;1.9060e+01;0;     0.116;  8925.896;  40206.328; 0;  39203.023;  40206.328;  43919.191;  34993.293; 86;   4.004; 227.316;  18.044;  74.169; 309.046;  70.876;  22.470;   6.108;   5.566;   4.049;   3.996;  -3.666;   1.552;   0.426;;;;;;;;;;;;;;;;;;
2008-09-25T01:33:09.571Z;0;1.9920e+01;0;     0.109;  8925.896;  41066.098; 0;  40084.320;  41066.098;  44794.953;  35869.059; 86;   4.003; 227.383;  18.109;  74.236; 309.112;  70.943;  22.470;   6.078;   5.536;   4.049;   3.995;  -3.666;   1.552;   0.424;;;;;;;;;;;;;;;;;;
2008-09-25T01:33:17.571Z;0;1.9870e+01;0;     0.106;  8925.896;  41010.215; 0;  40027.066;  41010.215;  44738.051;  35812.156; 86;   4.003; 227.450;  18.175;  74.303; 309.178;  71.011;  22.471;   6.049;   5.507;   4.048;   3.995;  -3.666;   1.551;   0.422;;;;;;;;;;;;;;;;;;
2008-09-25T01:33:25.571Z;0;1.9940e+01;0;     0.115;  8925.896;  41084.996; 0;  40103.680;  41084.996;  44814.195;  35888.301; 86;   4.003; 227.516;  18.241;  74.370; 309.244;  71.078;  22.472;   6.019;   5.477;   4.047;   3.995;  -3.666;   1.551;   0.420;;;;;;;;;;;;;;;;;;
2008-09-25T01:33:33.571Z;0;2.0220e+01;0;     0.123;  8925.896;  41358.855; 0;  40384.195;  41358.855;  45093.000;  36167.105; 86;   4.003; 227.583;  18.306;  74.438; 309.310;  71.146;  22.472;   5.990;   5.448;   4.047;   3.995;  -3.667;   1.550;   0.417;;;;;;;;;;;;;;;;;;
2008-09-25T01:33:41.571Z;0;1.9790e+01;0;     0.112;  8925.896;  40929.844; 0;  39944.719;  40929.844;  44656.211;  35730.316; 86;   4.002; 227.650;  18.372;  74.505; 309.377;  71.213;  22.473;   5.960;   5.418;   4.046;   3.995;  -3.667;   1.550;   0.415;;;;;;;;;;;;;;;;;;
2008-09-25T01:33:49.571Z;0;2.0230e+01;0;     0.112;  8925.896;  41366.410; 0;  40391.934;  41366.410;  45100.691;  36174.797; 86;   4.002; 227.717;  18.438;  74.572; 309.443;  71.281;  22.473;   5.931;   5.389;   4.045;   3.994;  -3.667;   1.549;   0.413;;;;;;;;;;;;;;;;;;
2008-09-25T01:33:57.571Z;0;2.0260e+01;0;     0.106;  8925.896;  41395.273; 0;  40421.492;  41395.273;  45130.070;  36204.176; 86;   4.002; 227.784;  18.504;  74.640; 309.509;  71.349;  22.474;   5.901;   5.359;   4.045;   3.994;  -3.667;   1.549;   0.411;;;;;;;;;;;;;;;;;;
2008-09-25T01:34:05.571Z;0;2.1270e+01;0;     0.136;  8925.364;  42366.363; 0;  41415.535;  42366.363;  46117.961;  37192.594; 86;   4.002; 227.851;  18.569;  74.707; 309.575;  71.416;  22.474;   5.872;   5.329;   4.044;   3.994;  -3.667;   1.548;   0.409;;;;;;;;;;;;;;;;;;
2008-09-25T01:34:13.571Z;0;2.1180e+01;0;     0.128;  8925.364;  42277.559; 0;  41324.688;  42277.559;  46027.637;  37102.273; 86;   4.002; 227.917;  18.635;  74.774; 309.642;  71.484;  22.475;   5.842;   5.300;   4.043;   3.994;  -3.668;   1.547;   0.407;;;;;;;;;;;;;;;;;;
2008-09-25T01:34:21.571Z;0;2.1060e+01;0;     0.116;  8925.364;  42166.469; 0;  41211.031;  42166.469;  45914.637;  36989.273; 86;   4.001; 227.984;  18.701;  74.842; 309.708;  71.552;  22.475;   5.813;   5.270;   4.043;   3.994;  -3.668;   1.547;   0.405;;;;;;;;;;;;;;;;;;
2008-09-25T01:34:29.571Z;0;2.1530e+01;0;     0.120;  8925.364;  42608.938; 0;  41663.645;  42608.938;  46364.652;  37439.285; 86;   4.001; 228.051;  18.766;  74.909; 309.774;  71.619;  22.476;   5.783;   5.241;   4.042;   3.993;  -3.668;   1.546;   0.403;;;;;;;;;;;;;;;;;;